This is the latest recevied weather packets stored in our database for station/object N0HEQ. If no packets are shown the sender has not sent any weather packets the latest 10 day(s).
| Time | Temp. | Humidity | Pressure | Rain* | Wind** | Luminosity | Snow |
|---|---|---|---|---|---|---|---|
| 1777836804 | 25° C | 13% | 1016.7 hPa | 0 mm | - | 843 W/m² | - |
| 1777836500 | 23.89° C | 14% | 1016.6 hPa | 0 mm | - | 909 W/m² | - |
| 1777836196 | 22.78° C | 14% | 1016.9 hPa | 0 mm | - | 918 W/m² | - |
| 1777835892 | 23.89° C | 14% | 1016.7 hPa | 0 mm | - | 720 W/m² | - |
| 1777835589 | 22.78° C | 14% | 1017.2 hPa | 0 mm | - | 514 W/m² | - |
| 1777835286 | 22.22° C | 15% | 1017.2 hPa | 0 mm | - | 665 W/m² | - |
| 1777834983 | 23.89° C | 16% | 1017.3 hPa | 0 mm | - | 729 W/m² | - |
| 1777834680 | 22.78° C | 15% | 1017.2 hPa | 0 mm | - | 557 W/m² | - |
| 1777834375 | 22.78° C | 16% | 1017.4 hPa | 0 mm | - | 415 W/m² | - |
| 1777834070 | 22.78° C | 16% | 1017.5 hPa | 0 mm | - | 680 W/m² | - |
| 1777833767 | 22.78° C | 16% | 1017.6 hPa | 0 mm | - | 634 W/m² | - |
| 1777833463 | 23.33° C | 14% | 1017.6 hPa | 0 mm | - | 649 W/m² | - |
| 1777833161 | 23.33° C | 17% | 1017.9 hPa | 0 mm | - | 503 W/m² | - |
| 1777832858 | 22.22° C | 17% | 1018 hPa | 0 mm | - | 553 W/m² | - |
| 1777832557 | 22.22° C | 18% | 1018.1 hPa | 0 mm | - | 364 W/m² | - |
| 1777832253 | 22.22° C | 17% | 1018.3 hPa | 0 mm | - | 640 W/m² | - |
| 1777831950 | 21.67° C | 16% | 1018.5 hPa | 0 mm | - | 470 W/m² | - |
| 1777831646 | 21.11° C | 20% | 1018.3 hPa | 0 mm | - | 383 W/m² | - |
| 1777831345 | 21.67° C | 19% | 1018.5 hPa | 0 mm | - | 288 W/m² | - |
| 1777831041 | 21.67° C | 21% | 1018.3 hPa | 0 mm | - | 389 W/m² | - |
| 1777830740 | 20.56° C | 21% | 1018.7 hPa | 0 mm | - | 324 W/m² | - |
| 1777830435 | 20.56° C | 18% | 1018.8 hPa | 0 mm | - | 345 W/m² | - |
| 1777830133 | 20.56° C | 21% | 1019 hPa | 0 mm | - | 352 W/m² | - |
| 1777829828 | 21.11° C | 24% | 1018.8 hPa | 0 mm | - | 351 W/m² | - |
| 1777829524 | 20.56° C | 23% | 1018.9 hPa | 0 mm | - | 305 W/m² | - |
* Rain latest hour (hover to see other rain measurements)
** Current wind speed in m/s (hover to see current wind gust speed)